Dauntless Aviation
Airports Europe Croatia
LDDU
DBV

Dubrovnik Airport

Dubrovnik, CROATIA

Airport Info
Suggest Updated Information for this Airport

Location

Latitude / Longitude: 42°33'41"N / 18°16'5"E
  42°33.684'N / 18°16.092'E
  42.5614 / 18.2682

Nearby radio navigation aids

CV DUBROVNIK NDB. 117.6° 2.8nm from CV to field.
DBK DUBROVNIK VOR/DME on field.
GR DUBROVNIK NDB. 294.2° 2.9nm from GR to field.
KLP KOLOCEP NDB. 118.0° 12.7nm from KLP to field.

Runway Information

Runway 12 /30

Dimensions: 10827 x 148 ft.
Surface: ASP
 
Runway 12
Runway 30
Latitude: 42.569225 42.555819
Longitude: 18.2484 18.282192
Elevation: 519 ft. 519 ft.
Runway true heading: 117.6 297.6
 

Instrument Procedures

  Aerodrome Chart
  Aircraft Parking/Docking Chart

STARs (Standard Terminal Arrivals)

  STAR - Instrument (STAR) - Rwy 12/30

IAPs (Instrument Approach Procedures)

  ATC Surveillance Minimum Altitude Chart
  ILS or LOC Rwy 12
  L Rwy 12
  RNAV (GNSS) Rwy 12
  VOR Rwy 12
  VOR-A Rwy 30
  Visual Manoeuvering - Circling Chart (IFR) - Circling Rwy 30
  Visual Operation Chart
  Bird Concentrations
  Aerodrome Obstacle Chart - Type A - Rwy 12
  Aerodrome Obstacle Chart - Type A - Rwy 30
  Aerodrome Information (Textual)

Departure Procedures

  SID - Instrument (SID) - Rwy 12
  SID - Instrument (SID) - Rwy 30
Satellite photo at:
Airport distance calculator
From:
Weather Reports

METAR

LDDU

LDDU 260900Z 27006KT 210V320 CAVOK 22/09 Q1018 BECMG 29008KT
LYTV
22.6nm E
LYTV 260830Z 23003KT 120V280 CAVOK 22/11 Q1017 NOSIG

TAF

LDDU
TAF LDDU 260525Z 2606/2706 01008KT 9999 SCT050 TX22/2612Z TN15/2703Z BECMG 2611/2613 29008KT PROB30 TEMPO 2612/2616 SHRA FEW040TCU SCT050 BECMG 2618/2620 02008KT
LYTV
22.6nm E
TAF LYTV 260500Z 2606/2706 22006KT 9999 SCT040 TX23/2612Z TN12/2703Z PROB30 TEMPO 2611/2617 5000 TSRA FEW030CB SCT040
Safelog

 

Dauntless Aviation

© 2007-2017 Dauntless Aviation, all rights reserved
Information provided via PilotNav comes from a variety of official and unofficial data sources. As errors are possible, do not use PilotNav for primary flight planning purposes. Verify any information that you receive via PilotNav with current and canonical charts and other official documents. The material in this database is subject to database copyrights held by Dauntless Aviation and may not be copied without the express permission of Dauntless Aviation - licenses for use of part of all of this data are available for purchase; enquire via the Dauntless Aviation helpdesk. A number of mechanisms and markers exist in the database to protect against and identify infringement / copyright. Automated queries against this website are stictly prohibited, and all activity is logged and analyzed.